{"data":{"norad_id":65381,"intl_designator":"2025-191C","name":"STARLINK-35028","alt_names":[],"object_type":"PAYLOAD","status":"ACTIVE","operator":null,"country":"US","launch_date":"2025-08-30","launch_site_code":"AFWTR","launch_vehicle":null,"mission":null,"orbit_class":"UNKNOWN","rcs_meters":null,"size_class":null,"mass_kg":null,"dimensions":null,"purposes":["comms"],"wikipedia_slug":null,"has_3d_model":false,"image_url":null,"decayed_at":null,"tle_current":{"epoch":"2026-09-20T19:23:52.838880Z","epoch_age_seconds":88263,"freshness":"FRESH","line1":"1 65381U 25191C   26263.80825045  .00011338  00000+0  35293-3 0  9992","line2":"2 65381  97.2850 129.8014 0001864  92.0333 268.1123 15.33449662 59684","mean_motion":15.33449662,"eccentricity":0.0001864,"inclination_deg":97.285,"raan_deg":129.8014,"arg_perigee_deg":92.0333,"mean_anomaly_deg":268.1123,"bstar":0.00035293,"rev_number":5968,"period_min":93.905919162803,"perigee_km":464.25364428226,"apogee_km":466.80496308028,"semimajor_km":6843.6663036813,"source":"CELESTRAK","updated_at":"2026-09-21T09:00:35.597143Z"}}}